Regional Weather Roundup
Issued by NWS

Home | Current Version | Previous Version | Text Only | Print | Product List | Glossary Off
Versions: 1 2 3 4 5 6 7 8 9 10 11 12 13 14 15 16 17 18 19 20 21 22 23 24 25 26 27 28 29 30 31 32 33 34 35 36 37 38 39 40 41 42 43 44 45 46 47 48 49 50

000
ASUS43 KMPX 240310
RWRMN
WEATHER ROUNDUP FOR MINNESOTA
NATIONAL WEATHER SERVICE TWIN CITIES/CHANHASSEN MN
1000 PM CDT TUE MAY 23 2017


NOTE: "FAIR" INDICATES FEW OR NO CLOUDS BELOW 12,000 FEET WITH NO
SIGNIFICANT WEATHER AND/OR OBSTRUCTIONS TO VISIBILITY. N/A MEANS
CURRENT SKY AND/OR WEATHER CONDITIONS ARE NOT AVAILABLE.

MNZ060>063-068>070-240400-
   Twin Cities Metro

CITY           SKY/WX    TMP DP  RH WIND       PRES   REMARKS
TWIN CITIES    MOCLDY    57  44  62 N12       29.82R
ST PAUL        CLOUDY    56  46  69 N8        29.83R
CRYSTAL        CLEAR     53  42  66 N8        29.82R
BLAINE         CLEAR     54  46  76 N8        29.83R
LAKEVILLE      CLOUDY    54  46  76 NE7       29.82R
EDEN PRAIRIE   CLOUDY    57  44  62 NE8       29.81R
SOUTH ST PAUL  CLOUDY    57  45  65 NE5       29.81S
LAKE ELMO      CLOUDY    54  46  76 N5        29.83R
$$
MNZ001>005-007-008-013>017-022>024-027-028-240400-
   Northwest Minnesota

CITY           SKY/WX    TMP DP  RH WIND       PRES   REMARKS
BEMIDJI        CLEAR     44  40  87 N3        29.93S
HALLOCK        CLEAR     52  43  71 S5        29.94S
ROSEAU         CLEAR     52  43  71 S3        29.94S
WARROAD        CLEAR     48  45  87 CALM      29.95S
THIEF RVR FALL CLEAR     50  43  77 CALM      29.96S
CROOKSTON      CLEAR     52  43  71 SE3       29.96S
FOSSTON        CLEAR     45  41  87 CALM      29.95S
DETROIT LAKES  CLOUDY    50  43  76 NE6       29.93S
MOORHEAD       CLOUDY    54  45  71 N9        29.95R
PARK RAPIDS    CLOUDY    52  41  66 N7        29.91S
MAHNOMEN       FAIR      46  42  87 N6        29.94R
$$
MNZ006-009>011-018-025>026-240400-
   North Central Minnesota

CITY           SKY/WX    TMP DP  RH WIND       PRES   REMARKS
BAUDETTE       CLEAR     47  42  83 CALM      29.94S
FLAG ISLAND    PTCLDY    54  43  66 SW7       29.92S
INTL FALLS     CLEAR     43  40  89 NE3       29.93S
WASKISH        CLEAR     45  41  87 CALM      29.94S
BIG FORK       CLEAR     45  41  87 CALM      29.93R
LONGVILLE      CLOUDY    52  45  76 N5        29.91R
GRAND RAPIDS   CLOUDY    51  44  77 N5        29.92S
CRANE LAKE     CLOUDY    45  45 100 CALM      29.94S
ORR            PTCLDY    45  39  81 CALM      29.90S
COOK           CLOUDY    48  43  81 CALM      29.92R
WALKER         CLOUDY    49  42  77 N5        29.92R
$$
MNZ012-019>021-037-240400-
   Northeast Minnesota

CITY           SKY/WX    TMP DP  RH WIND       PRES   REMARKS
DULUTH         CLOUDY    48  45  89 NE5       29.89S
ELY            CLOUDY    52  39  62 NE3       29.90S
HIBBING        CLOUDY    49  42  77 N3        29.90S
EVELETH        CLOUDY    53  42  68 CALM      29.91S
DULUTH HARBOR  CLOUDY    46  45  93 NE10      29.91R
TWO HARBORS    CLOUDY    50  45  81 CALM      29.89R
SILVER BAY     CLOUDY    48  46  93 CALM      29.89S
GRAND MARAIS     N/A     47  46  97 CALM      29.89F
G MARAIS ARPRT CLOUDY    45  39  81 N3        29.91S
$$
MNZ029>031-032-039>041-046>048-054>057-064-240400-
   West Central Minnesota

CITY           SKY/WX    TMP DP  RH WIND       PRES   REMARKS
FERGUS FALLS   CLEAR     50  43  76 NE6       29.90F
WHEATON        PTCLDY    50  45  81 N6        29.93S
MORRIS         CLEAR     50  46  87 N7        29.89S
ALEXANDRIA     MOCLDY    50  47  89 NE10      29.90S
ELBOW LAKE     FAIR      49  45  84 NE6       29.91S
WADENA         CLOUDY    50  45  81 N5        29.91R
GLENWOOD       CLEAR     50  46  87 N10       29.89S
APPLETON       CLOUDY    54  46  76 N8        29.88S
BENSON         PTCLDY    52  45  76 NE8       29.90S
ORTONVILLE     MOCLDY    52  46  82 N7        29.90S
MADISON        CLOUDY    55  48  76 N10       29.89S
WILLMAR        FAIR      52  46  82 N6        29.88R
$$
MNZ033>034-036-042>043-049>051-058-059-240400-
   Central Minnesota

CITY           SKY/WX    TMP DP  RH WIND       PRES   REMARKS
ST CLOUD       CLOUDY    54  46  74 N8        29.86R
SAUK CENTRE    CLOUDY    51  46  80 N12G18    29.89R
PAYNESVILLE    MOCLDY    51  46  81 CALM      29.87R
AITKIN         CLOUDY    50  48  93 NE3       29.88S
PINE RIVER     CLOUDY    52  45  76 N6        29.93S
BRAINERD       CLOUDY    51  48  89 NE5       29.89S
STAPLES        CLOUDY    50  45  81 N6        29.90S
LONG PRAIRIE   CLOUDY    50  45  81 N10       29.90R
LITTLE FALLS   MOCLDY    50  45  81 N3        29.89R
LITCHFIELD     CLEAR     52  46  82 N6        29.86R
BUFFALO        CLOUDY    54  45  72 N6        29.85R
MAPLE LAKE     PTCLDY    53  47  80 N6        29.86R
HUTCHINSON     CLEAR     54  46  75 N7        29.85S
$$
MNZ037-044-045-052-053-240400-
   East Central Minnesota

CITY           SKY/WX    TMP DP  RH WIND       PRES   REMARKS
PRINCETON      CLOUDY    54  46  76 N9        29.86S
MORA           CLOUDY    50  43  76 NE5       29.89R
CAMBRIDGE      PTCLDY    54  43  66 N7        29.84R
RUSH CITY      PTCLDY    49  44  81 N7        29.86R
MOOSE LAKE     MOCLDY    46  43  87 NE5       29.88R
HINCKLEY       CLOUDY    48  45  87 N9        29.88R
CLOQUET        CLOUDY    48  43  81 NE7       29.89S
MCGREGOR       CLOUDY    48  46  93 CALM      29.90R
$$
MNZ071>073-080-081-089-090-097-098-240400-
   Southwest Minnesota

CITY           SKY/WX    TMP DP  RH WIND       PRES   REMARKS
MONTEVIDEO     CLEAR     52  48  87 NE10      29.88R
CANBY          PTCLDY    52  48  87 CALM      29.90S
MARSHALL       MOCLDY    52  48  86 NW10      29.87S
REDWOOD FALLS  CLOUDY    53  45  74 N6        29.85R
OLIVIA         CLOUDY    54  48  82 N5        29.85R
PIPESTONE      CLOUDY    50  43  76 N7        29.88R
WINDOM         CLOUDY    48  46  93 NW7       29.84S
WORTHINGTON    PTCLDY    48  45  89 N7        29.86R
JACKSON        CLOUDY    50  46  87 CALM      29.84R
TRACY          MOCLDY    51  47  87 NW7       29.87R
SLAYTON        PTCLDY    48  44  85 N9        29.87R
$$
MNZ065>067-074>077-082>085-091>093-240400-
   South Central Minnesota

CITY           SKY/WX    TMP DP  RH WIND       PRES   REMARKS
MANKATO        LGT RAIN  52  48  86 NE10      29.82R
NEW ULM        PTCLDY    52  46  82 N6        29.83R
ST JAMES       MOCLDY    52  48  87 NW6       29.84R
FAIRMONT       LGT RAIN  51  48  89 N8        29.83R
GLENCOE        CLEAR     53  49  87 N7        29.83S
FARIBAULT      CLOUDY    55  46  71 N12G21    29.81R
OWATONNA       CLOUDY    54  48  82 N5        29.80R
WASECA         CLOUDY    52  48  87 NW6       29.81S
ALBERT LEA     CLOUDY    52  50  93 N7        29.79R
$$
MNZ078>079-086>088-094>096-240400-
   Southeast Minnesota

CITY           SKY/WX    TMP DP  RH WIND       PRES   REMARKS
ROCHESTER      CLOUDY    51  48  89 N20G28    29.78R
RED WING       CLOUDY    55  46  71 NE7       29.79R
STANTON        CLOUDY    53  49  85 N8        29.80R
DODGE CENTER   DRIZZLE   50  48  93 N7        29.78S
WINONA         CLOUDY    55  46  71 CALM      29.76S
AUSTIN         LGT RAIN  52  48  87 N7        29.77R
PRESTON        CLOUDY    50  47  90 N9        29.76S
$$
ABBREVIATIONS USED IN REMARKS
   TC - TEMPERATURES IN CELSIUS
  WCI - WIND CHILL INDEX
   HX - HEAT INDEX
  VSB - VISIBILITY
$$



USA.gov is the U.S. government's official web portal to all federal, state and local government web resources and services.